www.pogodaiklimat.ru

Погода и климат >> Архив погоды >> Эстония >> V?ru


ПОГОДА в V?ru

  • Прогноз погоды в V?ru
  • Монитор погоды в V?ru
  • Климат города

АРХИВ ПОГОДЫ в V?ru

Время (UTC), дата Ветер
(напр.,м/с)
 
Видим.   Явления Облачность Т
(С)
Тd
(С)
f
(%)
Тe
(С)
Тes
(С)
Комфортность P
(гПа)
Po
(гПа)
Тmin
(С)
Tmax
(С)
R
(мм)
R24
(мм)
S
(см)
07 13.09 ЮЗ 4 20 км н/о +14.2 +9.5 73 +13 +13 1013.1 1003.3
08 13.09 ЮЗ 5 20 км н/о +15.5 +9.7 68 +14 +14 1013.9 1004.1
09 13.09 ЮЗ 6-11
{12}
20 км 9/9 900 м
[]
+15.9 +9.5 66 +15 +15 1014.7 1004.9 +11.1 +16.2
11 13.09 ЮЗ 4 20 км н/о +17.2 +8.8 58 +17 +17 1015.8 1006.0
10 13.09 ЮЗ 5 20 км н/о +16.6 +8.6 59 +16 +16 1015.2 1005.4
12 13.09 ЮЗ 4 20 км н/о +17.9 +8.3 53 +18 +18 1016.0 1006.2
13 13.09 ЮЗ 4 20 км н/о +17.8 +8.1 53 +18 +18 1016.0 1006.2
14 13.09 З 4 20 км н/о +17.2 +7.6 53 +17 +17 1016.2 1006.4
15 13.09 З 4-9
{10}
20 км 3/3 1350 м
[]
+17.1 +7.8 54 +17 +17 1016.3 1006.5 +11.1 +18.4
17 13.09 ЮЗ 1 20 км н/о +14.0 +8.8 71 +14 +14 1016.6 1006.7
16 13.09 ЮЗ 2 20 км н/о +15.8 +8.4 61 +16 +16 1016.4 1006.6
18 13.09 ЮЗ 1 20 км н/о +12.5 +8.3 76 +13 +13 1016.7 1006.8 +12.5 +18.4
19 13.09 ЮЗ 1 20 км н/о +11.0 +8.2 83 +11 +11 1016.9 1006.9
20 13.09 штиль 0 20 км н/о +9.1 +8.3 95 +8 +8 1017.0 1006.9
21 13.09 штиль 0 20 км ясно +8.3 +7.1 92 +7 +7 1017.2 1007.1 +8.3 +18.4
23 13.09 штиль 0 20 км н/о +7.5 +6.6 94 +6 +6 1017.6 1007.5
22 13.09 штиль 0 20 км н/о +7.8 +7.0 95 +7 +7 1017.5 1007.4
00 14.09 штиль 0 20 км н/о +7.7 +6.8 94 +7 +7 1017.4 1007.3
01 14.09 штиль 0 20 км н/о +7.0 +6.2 95 +6 +6 1017.5 1007.4
02 14.09 Ю 1 20 км н/о +9.4 +8.5 94 +9 +9 1017.4 1007.4
03 14.09 Ю 1 20 км 9/3
[]
+9.7 +8.7 93 +9 +9 1017.3 1007.2 +7.0 +17.2
05 14.09 ЮЗ 2 20 км н/о +10.3 +7.9 85 +9 +9 1017.5 1007.5
04 14.09 Ю 2 20 км н/о +9.2 +7.8 91 +7 +7 1017.5 1007.4
06 14.09 ЮЗ 2 20 км н/о +12.2 +8.6 79 +11 +11 1017.6 1007.7 +7.0 +12.5
07 14.09 ЮЗ 2 20 км н/о +14.1 +9.4 73 +14 +14 1017.6 1007.7
08 14.09 ЮЗ 3 20 км н/о +15.4 +9.5 68 +15 +15 1017.7 1007.8
09 14.09 ЮЗ 3 20 км 5/5 840 м
[]
+15.7 +9.3 66 +15 +18 1017.8 1008.0 +7.0 +16.8
11 14.09 ЮЗ 2 20 км н/о +16.5 +9.0 61 +17 +17 1017.8 1008.0
10 14.09 ЮЗ 2 20 км н/о +15.7 +9.9 68 +16 +16 1017.9 1008.0
12 14.09 ЮЗ 3 20 км н/о +17.4 +8.3 55 +17 +17 1017.6 1007.8
13 14.09 ЮЗ 3 20 км н/о +18.2 +7.5 50 +18 +18 1017.3 1007.5
14 14.09 ЮЗ 3 20 км н/о +17.3 +7.7 53 +17 +17 1017.5 1007.7
15 14.09 ЮЗ 2
{8}
20 км 4/0 2000 м
[]
+16.7 +8.2 57 +17 +18 1017.5 1007.7 +9.1 +18.3
17 14.09 ЮЗ 2 20 км н/о +14.1 +8.5 69 +14 +14 1018.1 1008.2
16 14.09 ЮЗ 2 20 км н/о +16.3 +8.8 61 +16 +16 1017.8 1008.0
18 14.09 Ю 1 20 км н/о +12.7 +8.3 75 +13 +13 1018.4 1008.4 +12.2 +18.3
19 14.09 Ю 1 20 км н/о +11.2 +8.1 81 +11 +11 1018.5 1008.5
20 14.09 Ю 1 20 км н/о +11.2 +8.1 81 +11 +11 1018.3 1008.3
21 14.09 ЮЗ 1 20 км ясно +11.2 +8.2 82 +11 +11 1018.5 1008.5 +10.4 +18.3
23 14.09 Ю 1 9000 м н/о +10.3 +7.8 84 +10 +10 1018.8 1008.7
22 14.09 ЮЗ 1 9000 м н/о +10.5 +7.9 84 +10 +10 1018.8 1008.8
00 15.09 Ю 1 20 км н/о +10.8 +7.9 82 +11 +11 1018.6 1008.6
01 15.09 Ю 1 20 км н/о +10.7 +7.8 82 +10 +10 1018.6 1008.6
02 15.09 Ю 1 20 км н/о +9.1 +7.3 88 +8 +8 1018.2 1008.1
03 15.09 ЮЗ 1 20 км 1/1
[]
+9.3 +7.9 91 +9 +9 1018.1 1008.0 +8.3 +16.9
05 15.09 Ю 1 19 км н/о +11.3 +7.8 79 +11 +11 1017.9 1007.9
04 15.09 Ю 1 20 км н/о +8.1 +6.9 92 +7 +7 1018.2 1008.1
06 15.09 Ю 2 20 км н/о +13.3 +8.0 70 +13 +13 1017.8 1007.8 +7.9 +13.4
07 15.09 Ю 3 20 км н/о +15.2 +8.7 65 +15 +15 1017.9 1008.0
08 15.09 ЮЗ 3 20 км н/о +16.2 +8.6 61 +16 +16 1017.4 1007.6
09 15.09 Ю 3 20 км ясно +17.3 +7.7 53 +17 +22 1016.8 1007.1 +7.9 +17.7
11 15.09 Ю 2 20 км н/о +17.5 +7.2 51 +18 +18 1016.1 1006.3
10 15.09 ЮЗ 4 20 км н/о +18.1 +7.7 51 +18 +18 1016.5 1006.7
12 15.09 Ю 3 20 км н/о +17.5 +7.1 50 +18 +18 1015.6 1005.9
13 15.09 Ю 3 20 км н/о +17.4 +7.0 50 +17 +17 1014.9 1005.2
14 15.09 Ю 3 20 км н/о +17.0 +7.1 52 +17 +17 1014.4 1004.6
15 15.09 Ю 2 20 км 10/0 2000 м
[]
+16.2 +7.7 57 +16 +17 1014.1 1004.3 +7.9 +18.6
17 15.09 Ю 2 20 км н/о +14.6 +7.5 62 +14 +14 1013.5 1003.7
16 15.09 Ю 2 20 км н/о +15.8 +7.8 59 +16 +16 1013.7 1003.9
18 15.09 Ю 3 20 км н/о +14.9 +7.4 61 +14 +14 1013.1 1003.2 +13.3 +18.6
19 15.09 Ю 3 20 км н/о +14.5 +7.7 64 +14 +14 1013.0 1003.2
20 15.09 Ю 2 20 км н/о +12.3 +9.9 85 +11 +11 1012.8 1002.9
23 15.09 ЮЗ 2 20 км н/о +11.8 +9.8 88 +11 +11 1012.2 1002.3
22 15.09 ЮЗ 2 20 км н/о +12.4 +9.8 84 +11 +11 1012.1 1002.2
00 16.09 н/о
01 16.09 ЮЗ 3 20 км н/о +12.0 +10.3 89 +10 +10 1011.9 1002.0
02 16.09 З 3 20 км н/о +11.7 +9.9 89 +10 +10 1012.3 1002.4
05 16.09 З 4 20 км н/о +11.2 +9.8 91 +9 +9 1013.8 1003.8
04 16.09 З 3 20 км н/о +10.9 +9.8 93 +9 +9 1013.1 1003.2
06 16.09 З 3 20 км н/о +11.6 +10.0 90 +10 +10 1014.6 1004.7 +10.8 +14.9
07 16.09 З 3 20 км н/о +13.3 +10.2 81 +12 +12 1015.0 1005.1
08 16.09 З 4 20 км н/о +14.7 +9.8 72 +14 +14 1015.4 1005.6
11 16.09 З 4 20 км н/о +14.9 +5.8 54 +14 +14 1016.5 1006.6
10 16.09 З 4 20 км н/о +16.3 +6.1 51 +16 +16 1016.0 1006.2
12 16.09 З 4 20 км н/о +16.5 +5.7 49 +16 +16 1016.3 1006.5
13 16.09 З 2 20 км н/о +16.0 +7.4 57 +16 +16 1016.5 1006.7
14 16.09 З 4 20 км н/о +16.9 +6.2 49 +16 +16 1016.7 1006.9
17 16.09 ЮЗ 1 20 км н/о +11.2 +7.8 80 +11 +11 1018.0 1008.0
16 16.09 З 2 20 км н/о +12.1 +8.2 77 +11 +11 1017.6 1007.6
18 16.09 ЮЗ 1 20 км н/о +10.4 +7.4 82 +10 +10 1018.2 1008.2 +10.4 +17.6
19 16.09 ЮЗ 2 20 км н/о +10.9 +7.0 77 +10 +10 1018.3 1008.3
20 16.09 ЮЗ 2 20 км н/о +10.3 +6.6 78 +9 +9 1018.3 1008.2
23 16.09 ЮЗ 2 20 км н/о +9.7 +7.5 86 +8 +8 1017.9 1007.9
22 16.09 ЮЗ 2 20 км н/о +9.7 +7.1 84 +8 +8 1018.2 1008.1
00 17.09 ЮЗ 2 20 км н/о +9.2 +7.3 88 +7 +7 1017.6 1007.6
01 17.09 ЮЗ 2 20 км н/о +8.5 +6.8 89 +7 +7 1017.4 1007.3
02 17.09 Ю 2 20 км н/о +8.0 +6.6 91 +6 +6 1017.2 1007.1
05 17.09 Ю 3 20 км н/о +10.0 +7.0 82 +8 +8 1016.4 1006.4
04 17.09 ЮЗ 2 20 км н/о +9.4 +7.2 86 +8 +8 1016.8 1006.7
06 17.09 Ю 3 20 км н/о +11.1 +7.7 80 +9 +9 1016.0 1006.0 +7.9 +11.3
07 17.09 Ю 3 20 км н/о +11.6 +8.0 79 +10 +10 1015.5 1005.5
08 17.09 Ю 4 20 км н/о +11.6 +8.5 81 +9 +9 1015.0 1005.0
11 17.09 Ю 5 20 км н/о +13.1 +10.9 86 +11 +11 1012.2 1002.3 0.5
10 17.09 Ю 5 20 км н/о +13.3 +10.1 81 +11 +11 1012.9 1003.1
12 17.09 Ю 5 20 км н/о +14.0 +11.4 84 +12 +12 1010.8 1001.0 0.6
13 17.09 Ю 5 20 км н/о +14.9 +11.0 77 +13 +13 1010.1 1000.3
14 17.09 ЮЗ 4 20 км н/о +15.2 +11.5 79 +14 +14 1009.9 1000.2
17 17.09 ЮЗ 3 20 км н/о +13.8 +12.8 94 +13 +13 1010.8 1000.9
16 17.09 ЮЗ 3 20 км н/о +14.0 +12.4 90 +13 +13 1010.3 1000.5 0.1
18 17.09 ЮЗ 3 20 км н/о +13.6 +12.5 93 +12 +12 1010.9 1001.1 +11.1 +15.9 0.4
19 17.09 З 4 10 км н/о +13.5 +12.1 91 +12 +12 1011.2 1001.3
20 17.09 ЮЗ 3 20 км н/о +13.0 +11.7 92 +12 +12 1011.4 1001.5
23 17.09 З 4 20 км н/о +12.2 +10.6 90 +10 +10 1012.6 1002.7
22 17.09 З 5 20 км н/о +12.4 +10.8 90 +10 +10 1012.3 1002.4
00 18.09 З 4 20 км н/о +12.2 +10.6 90 +10 +10 1013.4 1003.5
01 18.09 З 3 20 км н/о +11.7 +10.5 92 +10 +10 1014.2 1004.3
02 18.09 ЮЗ 2 20 км н/о +11.0 +10.4 96 +10 +10 1014.9 1004.9
05 18.09 ЮЗ 2 20 км н/о +11.2 +10.4 95 +10 +10 1016.0 1006.0
04 18.09 ЮЗ 1 20 км н/о +10.5 +10.0 97 +10 +10 1015.6 1005.6
06 18.09 ЮЗ 2 20 км н/о +11.6 +10.5 93 +10 +10 1016.4 1006.5 +10.3 +14.1
07 18.09 З 2 20 км н/о +13.2 +10.8 85 +12 +12 1016.8 1006.9
08 18.09 ЮЗ 3 20 км н/о +14.9 +11.6 81 +14 +14 1016.8 1007.0
11 18.09 З 3 20 км н/о +16.6 +9.6 63 +16 +16 1016.8 1007.0
10 18.09 З 3 20 км н/о +15.9 +9.0 64 +15 +15 1016.8 1007.0
12 18.09 З 4 20 км н/о +16.8 +9.4 62 +16 +16 1016.5 1006.8
13 18.09 ЮЗ 3 20 км н/о +18.0 +10.3 61 +18 +18 1016.0 1006.3
14 18.09 ЮЗ 2 20 км н/о +17.4 +10.2 63 +18 +18 1015.9 1006.1
17 18.09 Ю 2 20 км н/о +15.9 +10.2 69 +16 +16 1015.0 1005.2
16 18.09 ЮЗ 2 20 км н/о +16.3 +10.0 66 +16 +16 1015.3 1005.5
18 18.09 Ю 3 20 км н/о +16.4 +10.6 69 +16 +16 1014.7 1004.9 +11.6 +18.3
19 18.09 Ю 2 20 км н/о +16.4 +11.1 71 +17 +17 1014.2 1004.4
20 18.09 Ю 3 20 км н/о +16.6 +11.7 73 +16 +16 1014.0 1004.3
21 18.09 ЮЗ 3 20 км ясно +16.5 +12.1 75 +16 +16 1013.9 1004.1 +15.4 +18.3
23 18.09 ЮЗ 2 20 км н/о +16.0 +11.5 75 +16 +16 1013.8 1004.0
22 18.09 ЮЗ 2 20 км н/о +16.4 +11.9 75 +17 +17 1013.9 1004.1
00 19.09 ЮЗ 2 20 км н/о +15.5 +10.9 74 +15 +15 1013.5 1003.7
01 19.09 ЮЗ 2 20 км н/о +15.3 +10.5 73 +15 +15 1013.4 1003.6
02 19.09 ЮЗ 2 20 км н/о +15.4 +10.2 71 +15 +15 1013.3 1003.5
03 19.09 ЮЗ 2 20 км ясно +14.9 +10.1 73 +15 +15 1013.0 1003.1 +14.6 +17.0
05 19.09 ЮЗ 2 20 км н/о +17.0 +9.8 63 +17 +17 1012.5 1002.7
04 19.09 ЮЗ 2 20 км н/о +15.4 +9.7 69 +15 +15 1012.6 1002.8
06 19.09 ЮЗ 2 20 км н/о +18.3 +10.6 61 +19 +19 1012.5 1002.8 +14.6 +18.3
07 19.09 ЮЗ 2 20 км н/о +19.5 +11.2 59 +21 +21 комфорт 1012.4 1002.7
08 19.09 ЮЗ 3 20 км н/о +21.0 +12.2 57 +24 +24 комфорт 1011.9 1002.3
09 19.09 ЮЗ 3 20 км ясно +22.6 +12.6 53 +25 +30 комфорт 1011.6 1002.0 +14.6 +22.6
11 19.09 ЮЗ 4 20 км н/о +24.4 +13.1 49 +26 +26 жарко 1010.9 1001.4
10 19.09 ЮЗ 4 17 км н/о +23.7 +13.0 51 +26 +26 жарко 1011.1 1001.6
12 19.09 ЮЗ 3
{10}
20 км ясно +25.3 +12.7 46 +27 +31 жарко 1010.7 1001.2 +14.6 +25.3
13 19.09 ЮЗ 3
{10}
20 км ясно +25.8 +12.0 42 +27 +30 жарко 1010.4 1000.9 +14.6 +25.8
14 19.09 ЮЗ 3
{10}
20 км ясно +25.2 +12.1 44 +27 +28 жарко 1010.5 1001.0 +14.6 +25.8
15 19.09 ЮЗ 2
{9}
20 км ясно +24.4 +12.4 47 +26 +27 жарко 1010.5 1001.1 +14.9 +25.8
17 19.09 З 4
{9}
20 км ясно +20.4 +13.9 66 +23 +23 комфорт 1011.7 1002.1 +17.1 +25.8
16 19.09 З 3
{9}
20 км ясно +22.8 +13.0 54 +26 +26 жарко 1011.0 1001.5 +15.3 +25.8
18 19.09 З 4
{9}
20 км ясно +18.5 +13.6 73 +19 +19 1012.3 1002.6 +18.2 +25.8
19 19.09 ЮЗ 3
{9}
20 км ясно +16.9 +12.9 77 +17 +17 1012.9 1003.2 +16.9 +25.8
20 19.09 З 3
{9}
20 км ясно +15.7 +12.4 81 +15 +15 1013.3 1003.5 +15.6 +25.8

 

Местоположение метеостанции V?ru (Эстония): широта 57.85 долгота 27.02 высота над уровнем моря 83 м.

В архиве по умолчанию представлена погода в V?ru за последнюю неделю. Архивные данные за месяц целиком и за предыдущие месяцы, начиная с января 2011 года, Вы можете получить, выбрав интересующий диапазон дат из раскрывающегося списка и нажав кнопку "Ввод!".


*Определитесь, кто Вы:
робот инопланетянин человек

Внимание! Время в таблицах - всемирное. Для получения местного времени необходимо прибавить поправку, которая в V?ru равна 2 ч.

Смотрите также архив погоды в соседних городах и на ближайших метеорологических станциях:

Погода в Al?ksnes (Латвия) (47 км)
Погода в Tartu (Эстония) (53 км)
Погода в Valga (Эстония) (59 км)
Погода в Пскове (Псковская область, Россия) (78 км)
Погода в Gulbene (Латвия) (82 км)
Погода в R?jienas (Латвия) (97 км)
Погода в Viljandi (Эстония) (102 км)
Погода в Zoseni (Латвия) (104 км)
Погода в Jogeva (Эстония) (106 км)
Погода в Гдове (Псковская область, Россия) (109 км)

Пояснения к столбцам:

Ветер - указаны скорость ветра в м/с - средняя за 10 мин, порывы в срок и между сроками (в фигурных скобках) и направление, откуда дует ветер: С - северный, СВ - северо-восточный, В - восточный, ЮВ - юго-восточный, Ю - южный, ЮЗ - юго-западный, З - западный, СЗ - северо-западный.
Видимость - горизонтальная дальность видимости в метрах или километрах. При видимости от 1 до 10 км при отсутствии осадков обычно наблюдается дымка, при ухудшении видимости до 1 км и менее - туман. В сухую погоду видимость может ухудшаться дымом, пылью или мглою.
Явления - указаны атмосферные явления, наблюдавшиеся в срок или в последний час перед сроком; фигурными скобками обозначены явления, наблюдавшиеся между сроками (за 1-3 часа до срока); квадратными скобками обозначены град или гололедные отложения с указанием их диаметра в мм.
Облачность - указаны через наклонную черту общая и нижняя облачность в баллах и высота нижней границы облаков в метрах; квадратными скобками обозначены формы облаков: Ci - перистые, Cs - перисто-слоистые, Cc - перисто-кучевые, Ac - высококучевые, As - высокослоистые, Sc - слоисто-кучевые, Ns - слоисто-дождевые, Cu - кучевые, Cb - кучево-дождевые. Подробнее классификацию облаков см. в Атласе облаков (PDF).
T - Температура воздуха - температура, измеренная на высоте 2 м над землей.
Td - Температура точки росы - температура, при понижении до которой содержащийся в воздухе водяной пар достигнет насыщения.
f - Относительная влажность воздуха - влажноcть воздуха, измеренная на высоте 2 м над землей.
Te - Эффективная температура - температура, которую ощущает одетый по сезону человек в тени. Характеристика душности погоды. При расчете учитывается влияние влажности воздуха и скорости ветра на теплоощущения человека.
Tes - Эффективная температура на солнце - температура, которую ощущает человек, с поправкой на солнечный нагрев. Характеристика знойности погоды. Зависит от высоты солнца над горизонтом, облачности и скорости ветра. Ночью, в пасмурную погоду, а также при ветре 12 м/с и более поправка равна нулю.
P - Атмосферное давление - приведенное к уровню моря атмосферное давление.
Po - Атмосферное давление - измеренное на уровне метеостанции атмосферное давление.
Tmin - Минимальная температура - минимум температуры воздуха на высоте 2 м над землей.
Tmax - Максимальная температура - максимум температуры воздуха на высоте 2 м над землей.
R - Количество осадков - Количество выпавших осадков за период времени, мм. При наведении курсора мыши на число - период времени, за который выпало указанное количество осадков.
R24 - Количество осадков - Количество выпавших осадков за 24 часа, мм.
S - Снежный покров - Высота снежного покрова, см. При наведении курсора мыши на число - состояние снежного покрова и степень покрытия местности в баллах.